Regional Weather Roundup
Issued by NWS

Home | Current Version | Previous Version | Graphics & Text | Print | Product List | Glossary On
Versions: 1 2 3 4 5 6 7 8 9 10 11 12 13 14 15 16 17 18 19 20 21 22 23 24 25 26 27 28 29 30 31 32 33 34 35 36 37 38 39 40 41 42 43 44 45 46 47 48 49 50
353
ASUS45 KBOU 180107
RWRCO

WEATHER ROUNDUP FOR COLORADO
NATIONAL WEATHER SERVICE DENVER/BOULDER CO
700 PM MDT TUE OCT 17 2017

NOTE: "FAIR" INDICATES FEW OR NO CLOUDS BELOW 12000 FEET WITH NO
SIGNIFICANT WEATHER AND/OR OBSTRUCTIONS TO VISIBILITY.

COZ001>005-013-030-031-180200-
...NORTHWEST COLORADO...

CITY           SKY/WX    TMP DP  RH WIND       PRES   REMARKS
CRAIG          FAIR      48  15  26 SW8       30.20F
HAYDEN         FAIR      58  12  16 CALM      30.24R
MEEKER         FAIR      57  13  17 W3        30.22S
RABBIT EARS PA FAIR      41  10  28 W7        30.44S
STEAMBOAT SPGS FAIR      58   9  14 N3        30.24S
WALDEN         FAIR      50   7  17 S3        30.31S
$$

COZ006>008-011-180200-
...WEST CENTRAL VALLEYS...

CITY           SKY/WX    TMP DP  RH WIND       PRES   REMARKS
GRAND JUNCTION FAIR      58  15  18 CALM      30.17F
MONTROSE       FAIR      54  19  25 E5        30.24S
EAGLE          FAIR      61   4  10 SW5       30.26R
RIFLE          FAIR      60  11  14 VRB5      30.20S
DELTA          FAIR      60  17  18 CALM      30.19R
NUCLA          FAIR      68  -4   5 CALM      30.25F
$$

COZ017>023-064>068-180200-
...SOUTHWEST COLORADO...

CITY           SKY/WX    TMP DP  RH WIND       PRES   REMARKS
DURANGO        FAIR      60   6  11 SW9       30.26S
CORTEZ         FAIR      53  10  18 SE3       30.24S
PAGOSA SPRINGS FAIR      49  17  27 CALM      30.34R
TELLURIDE      NOT AVBL
WOLF CREEK PAS FAIR      37  10  32 SW14      30.60S
$$

COZ009-010-012-014-032>034-037-058>063-180200-
...CENTRAL COLORADO...

CITY           SKY/WX    TMP DP  RH WIND       PRES   REMARKS
ASPEN          FAIR      47  15  27 S5        30.31R
BUENA VISTA    FAIR      56   6  13 W12       30.28R
COPPER MTN     FAIR      45  -6  12 W10       30.54R
BERTHOUD PASS  FAIR      34  27  75 NW18G24   30.53S WCI  23
COTTONWOOD PAS FAIR      59  -4   7 W16G22    30.40S
GUNNISON       FAIR      54  13  19 N9G17     30.30R
KREMMLING      FAIR      59   3  10 NW3       30.27R
LEADVILLE      FAIR      44   4  19 NE6       30.40S
MONARCH PASS   FAIR      41   3  20 SW16      30.64F
SALIDA         NOT AVBL
SUNLIGHT       FAIR      39  -2  17 SW9G22    30.50S
WILKERSON PASS FAIR      46   0  14 N8        30.52R
$$

COZ069>075-180200-
...SAN LUIS VALLEY/SANGRE DE CRISTO MOUNTAINS...

CITY           SKY/WX    TMP DP  RH WIND       PRES   REMARKS
ALAMOSA        FAIR      51  11  20 S7        30.28R
DEL NORTE      FAIR      52  16  23 CALM      30.31S
LA VETA PASS   FAIR      46   3  17 S23G29    30.53S
SAGUACHE       FAIR      54  10  17 CALM      30.31R
$$

COZ035-036-038>040-180200-
...NORTHERN COLORADO FRONT RANGE...

CITY           SKY/WX    TMP DP  RH WIND       PRES   REMARKS
DENVER INTL AP FAIR      62  16  16 S8        30.10R
DMNS CITY PARK   N/A     61  18  18 E8        30.10S
AURORA         PTCLDY    59  15  17 SE7       30.13R
FRONT RANGE AP MOCLDY    57  21  24 SE7       30.12S
ERIE MUNI ARPT FAIR      61  19  20 W6        30.14R
BOULDER MUN AP FAIR      68  19  15 W3        30.09R
CENTENNIAL     FAIR      60  17  18 S5        30.13S
BROOMFIELD     NOT AVBL
FORT COLLINS   FAIR      67  24  19 SW5       30.09R
LONGMONT       FAIR      59  29  32 W7        30.11R
$$

COZ041-046-047-076>085-087-088-180200-
...PIKES PEAK/PALMER DIVIDE AND SOUTHERN FOOTHILLS...

CITY           SKY/WX    TMP DP  RH WIND       PRES   REMARKS
COLO. SPRINGS  FAIR      65  13  13 SE6       30.18R
A. F. ACADEMY  FAIR      53  20  27 N7        30.19R
SCHRIEVER AFB  FAIR      53  28  37 CALM      30.18R
CHEYENNE MTN   FAIR      62   7  11 SW6       30.17R
ELLICOTT       FAIR     N/A N/A N/A S8        30.17R
FALCON         FAIR      55  12  18 SW3       30.22S
FORT CARSON    FAIR      62  14  15 SW5       30.15R
LIMON          FAIR      51  24  34 S5        30.13R
MONUMENT HILL  FAIR      46  19  34 S8        30.23R
CANON CITY     CLEAR     63  18  17 N8        30.11R
WALSENBURG     FAIR      63  19  19 SW6       30.15R
TRINIDAD       FAIR      60  25  26 S9        30.14R
$$

COZ042>045-048>051-090-091-180200-
...NORTHEAST COLORADO...

CITY           SKY/WX    TMP DP  RH WIND       PRES   REMARKS
GREELEY ARPT   FAIR      57  32  38 CALM      30.07R
AKRON          FAIR      65  14  14 NW5       30.06S
BURLINGTON     FAIR      55  27  34 S10       30.07S
WRAY           FAIR      63  21  20 CALM      30.02R
YUMA           NOT AVBL
STERLING       FAIR      50  27  40 SW5       30.00S
HOLYOKE        FAIR      59  27  29 S10       30.01S
FORT MORGAN    FAIR      67   8  10 S3        30.06S
$$

COZ086-089-092>099-180200-
...SOUTHEAST COLORADO...

CITY           SKY/WX    TMP DP  RH WIND       PRES   REMARKS
PUEBLO         FAIR      61  19  19 E9        30.07R
LA JUNTA       FAIR      64  28  25 E6        30.06S
LAMAR          FAIR      54  27  35 S3        30.02S
SPRINGFIELD      N/A     56  34  43 CALM      30.08R
$$




USA.gov is the U.S. government's official web portal to all federal, state and local government web resources and services.